Weather History for KTBN - June, 2013

Change the Weather History Date:

Sunday, June 23, 2013

  Actual Average Record
Temperature  
Mean Temperature 77 °F -  
Max Temperature 89 °F 81 °F 95 °F (2005)
Min Temperature 66 °F 65 °F 53 °F (2004)
Cooling Degree Days 12    
Growing Degree Days 27 (Base 50)    
Moisture  
Dew Point 71 °F    
Average Humidity 80    
Maximum Humidity 100    
Minimum Humidity 60    
Precipitation  
Precipitation 0.00 in - - ()
Sea Level Pressure  
Sea Level Pressure 30.00 in    
Wind  
Wind Speed 9 mph (SSE)    
Max Wind Speed 13 mph    
Max Gust Speed 17 mph    
Visibility 10 miles    
Events      
Averages and records for this station are not official NWS values.
T = Trace of Precipitation, MM = Missing Value Source: NWS Daily Summary

Daily Weather History Graph

Daily Weather History Graph

Search for Another Location

Airport or City:

Trip Planner

Search our weather history database for the weather conditions in past years. The results will help you decide how hot, cold, wet, or windy it might be!

Date:

Astronomy

Jun. 23, 2013 Rise Set
Actual Time 5:47 AM CDT 8:34 PM CDT
Civil Twilight 5:16 AM CDT 9:05 PM CDT
Nautical Twilight 4:37 AM CDT 9:44 PM CDT
Astronomical Twilight 3:52 AM CDT 10:29 PM CDT
Moon 8:48 PM CDT (6/23) 6:04 AM CDT (6/23)
Length of Visible Light 15h 49m
Length of Day
14h 46m
Full, 100% of the Moon is Illuminated
Jun 23
Full
Jun 29
Last Quarter
Jul 8
New
Jul 15
First Quarter
Jul 22
Full

Hourly Weather History & Observations

Time (CDT) Temp. Heat Index Dew Point Humidity Pressure Visibility Wind Dir Wind Speed Gust Speed Precip Events Conditions
12:58 AM 70.5 °F - 66.4 °F 87% 30.02 in 10.0 mi SSE 10.4 mph - N/A   Clear
1:58 AM 69.6 °F - 66.6 °F 90% 29.99 in 10.0 mi SSE 8.1 mph - N/A   Clear
2:58 AM 69.6 °F - 66.9 °F 91% 29.97 in 10.0 mi South 6.9 mph - N/A   Clear
3:58 AM 68.5 °F - 67.1 °F 95% 29.97 in 10.0 mi SSE 6.9 mph - N/A   Clear
4:58 AM 67.6 °F - 67.6 °F 100% 29.99 in 10.0 mi SE 6.9 mph - N/A   Clear
5:58 AM 66.7 °F - 66.7 °F 100% 30.01 in 10.0 mi SSE 4.6 mph - N/A   Clear
6:58 AM 67.8 °F - 67.8 °F 100% 30.01 in 10.0 mi SE 9.2 mph - N/A   Clear
7:58 AM 72.0 °F - 68.9 °F 90% 30.02 in 10.0 mi SSE 9.2 mph - N/A   Clear
8:58 AM 76.3 °F - 70.7 °F 83% 30.02 in 10.0 mi SSE 8.1 mph - N/A   Clear
9:58 AM 81.7 °F 86.7 °F 72.5 °F 74% 30.02 in 10.0 mi South 10.4 mph - N/A   Clear
10:58 AM 84.4 °F 90.6 °F 72.9 °F 68% 30.02 in 10.0 mi SSW 9.2 mph 17.3 mph N/A   Clear
11:58 AM 86.4 °F 93.8 °F 73.2 °F 65% 30.03 in 10.0 mi South 8.1 mph - N/A   Partly Cloudy
12:58 PM 86.5 °F 93.8 °F 73.0 °F 64% 30.03 in 10.0 mi South 8.1 mph - N/A   Mostly Cloudy
1:58 PM 88.2 °F 95.5 °F 72.9 °F 60% 30.01 in 10.0 mi South 9.2 mph - N/A   Scattered Clouds
2:58 PM 88.7 °F 97.2 °F 73.8 °F 61% 29.99 in 10.0 mi Variable 6.9 mph - N/A   Scattered Clouds
3:58 PM 87.8 °F 95.2 °F 72.7 °F 61% 29.97 in 10.0 mi South 8.1 mph - N/A   Mostly Cloudy
4:58 PM 86.4 °F 93.0 °F 72.3 °F 63% 29.96 in 10.0 mi SSE 6.9 mph - N/A   Partly Cloudy
5:58 PM 84.7 °F 91.7 °F 73.6 °F 69% 29.96 in 10.0 mi SSE 5.8 mph - N/A   Clear
6:58 PM 83.7 °F 90.4 °F 73.9 °F 72% 29.96 in 10.0 mi ESE 8.1 mph - N/A   Clear
7:58 PM 79.9 °F - 74.1 °F 82% 29.98 in 10.0 mi East 9.2 mph - N/A   Scattered Clouds
8:58 PM 76.6 °F - 70.3 °F 81% 29.99 in 10.0 mi ESE 12.7 mph - N/A   Partly Cloudy
9:58 PM 75.7 °F - 68.9 °F 79% 30.03 in 10.0 mi ESE 11.5 mph - N/A   Partly Cloudy
10:58 PM 75.2 °F - 70.2 °F 84% 30.04 in 10.0 mi SE 10.4 mph - N/A   Clear
11:58 PM 75.4 °F - 71.8 °F 89% 30.02 in 10.0 mi SE 10.4 mph - N/A   Clear